Terminal Aerodrome Forecast
Issued by NWS

Home | Current Version | Previous Version | Text Only | Print | Product List | Glossary On
Versions: 1 2 3 4 5 6 7 8 9 10 11 12
000
FTUS45 KRIW 171100
TAFBPI
TAF
KBPI 171121Z 1712/1812 VRB06KT P6SM VCSH SCT100
     FM172100 VRB10G15KT P6SM VCSH BKN100
     FM180200 35006KT P6SM SCT100 SCT140
     FM180500 VRB06KT P6SM FEW110=

USA.gov is the U.S. government's official web portal to all federal, state and local government web resources and services.